Location: Poughquag
(41.6090°N, 73.6820°W)
Time: 16:29:47
(UTC-05:00)

ISS - Pass Details

Date: 20 January 2020
Orbit: 415 x 423 km, 51.6° (Epoch: 25 February)

Event Time Altitude Azimuth Distance (km) Brightness Sun altitude
Rises 18:27:07 0° 221° (SW) 2,366 0.9 -17.1°
Reaches altitude 10° 18:29:15 10° 215° (SW) 1,504 -0.3 -17.4°
Maximum altitude 18:32:32 49° 140° (SE) 553 -3.4 -18.0°
Enters shadow 18:32:44 48° 125° (SE) 560 -3.5 -18.1°
